Regional Weather Roundup
Issued by NWS Newport/Morehead, NC

Current Version | Previous Version | Text Only | Print | Product List | Glossary On
Versions: 1 2 3 4 5 6 7 8 9 10 11 12 13 14 15 16 17 18 19 20 21 22 23 24 25 26 27 28 29 30 31 32 33 34 35 36 37 38 39 40 41 42 43 44 45 46 47 48 49 50
000
ASUS42 KMHX 191125
RWRMHX
WEATHER ROUNDUP FOR EASTERN NORTH CAROLINA
NATIONAL WEATHER SERVICE NEWPORT/MOREHEAD CITY NC
600 AM EST THU JAN 19 2017

NOTE: "FAIR" INDICATES FEW OR NO CLOUDS BELOW 12,000 FEET
WITH NO SIGNIFICANT WEATHER AND/OR OBSTRUCTIONS TO VISIBILITY

NCZ015>017-031-032-045>047-102-103-191200-
NORTH COAST

CITY           SKY/WX    TMP DP  RH WIND       PRES   REMARKS
EDENTON        PTCLDY    41  38  90 CALM      30.09R
ELIZABETH CITY PTCLDY    43  40  89 N8        30.07R
KITTY HAWK     NOT AVBL
MANTEO         CLOUDY    43  43 100 N6        30.07R

$$

NCZ045>047-081-094-103-104-191200-
CENTRAL COAST

CITY           SKY/WX    TMP DP  RH WIND       PRES   REMARKS
FRISCO         CLEAR     48  44  86 N6        30.04R

$$

NCZ095-097-098-100-101-191200-
SOUTHERN COAST

CITY           SKY/WX    TMP DP  RH WIND       PRES   REMARKS
BEAUFORT       CLEAR     44  42  93 N3        30.07R
CEDAR ISLAND   NOT AVBL
JACKSONVILLE   CLOUDY    41  40  96 N3        30.07R
PINEY ISLAND   SUNNY    N/A N/A N/A N7        30.06R
WILMINGTON     CLEAR     40  40 100 NE3       30.07R


$$

NCZ011>013-027>030-043-044-078>080-089-090>093-098-191200-
COASTAL PLAIN

CITY           SKY/WX    TMP DP  RH WIND       PRES   REMARKS
AHOSKIE          N/A     37  36  96 CALM      30.10S
CLINTON        CLEAR     38  38  99 CALM      30.08R
ELIZABETHTOWN  CLEAR     40  38  93 CALM      30.07S
GOLDSBORO      CLEAR     36  36 100 CALM      30.06S
GREENVILLE     SNOW      36  36 100 CALM      30.10S VSB 1/2
HAVELOCK       CLEAR     40  38  93 CALM      30.08R
KENANSVILLE    CLEAR     34  34 100 CALM      30.08R
KINSTON        CLEAR     36  35  97 CALM      30.08S
NEW BERN       FOG       38  36  92 CALM      30.09R VSB 1/4
RICHLANDS      CLOUDY    34  34 100 CALM      30.08R FOG
ROCKY MOUNT    CLEAR     37  37 100 CALM      30.08F
WASHINGTON     CLEAR     38  37  99 CALM        N/A
WHITEVILLE     CLEAR     40  39  96 CALM      30.06S

$$

AMZ130-135-150-152-154-156-158-170-250-252-270-ANZ085-086-088-633-658-670-191200-
MARINE OBSERVATIONS

STATION/POSITION TIME  TEMP    WIND        PRES    WAVE   SWELL
                       AIR SEA DIR/SP/G            HT/PER HT/PER
                 (UTC) (F)     (DEG/KT/KT) (MB)    (FT/S) (FT/S)
CHESAPEAKE LIGHT NOT AVBL
64 E VA BEACH    1050   50 57   10/ 19/ 21 1017.0    6/ 7   3/ 7
DUCK             1100   44 45  350/  9/ 11 1017.6
2 E DUCK         1100      45                N/A     4/ 8
OREGON INLET     1100   43 50  340/  5/  8 1017.9
13E OREGON INLT  NOT AVBL
HATTERAS CG      1100   48 55   10/ 13/ 15 1017.1
DIAMOND BUOY     1050   53 75   20/ 19/ 23 1016.3    6/11   3/11
CAPE LOOKOUT     1100   47     350/  7/  9 1017.5
BEAUFORT LAB     1100   46 50  360/  6/  7 1017.1
30 SE NEW RVR IN 1108   56 62   30/ 10/ 16 1017.7
30 SE NEW RVR IN 1113      62                N/A     4/ 7
27 SE WRIGHTSVLE 1108   58 68   50/ 10/ 16 1017.5
5 SE WRIGHTSVLE  NOT AVBL
225 S CAPE HAT   1050   67 71  350/ 12/ 16 1015.7    8/ 8   8/ 8
41 SE CHARLESTON 1050   69 70   80/  4/  6 1015.4    2/ 5   2/ 5

$$




USA.gov is the U.S. government's official web portal to all federal, state and local government web resources and services.